Simultaneous Nadir Overpasses (SNOs) Predictions

Prediction of SNOs between NOAA-19 and METOP-C Satellite Orbit:

Table of predicted SNOs for the next 14.0 days since TLE Epoch: 3/8/2019
Index Date (NOAA-19) Time (NOAA-19) Lat,Lon (NOAA-19) SZA (NOAA-19 ) Date (METOP-C) Time (METOP-C) Lat,Lon (METOP-C) SZA (METOP-C ) Distance(km) Time Diff (sec)
1 03/13/2019 21:33:50 -79.06, 50.79 98.00 03/13/2019 21:35:04 -79.03, 50.75 98.01 3.16 74
2 03/13/2019 22:24:48 79.05,-141.84 81.99 03/13/2019 22:25:44 79.06,-141.74 82.01 2.36 56
3 03/13/2019 23:15:50 -79.03, 25.53 98.04 03/13/2019 23:16:25 -79.06, 25.57 98.01 2.89 35
4 03/14/2019 00:06:48 79.02,-167.10 81.94 03/14/2019 00:07:06 79.05,-167.18 81.97 3.45 18
5 03/14/2019 00:57:51 -79.04, 0.01 98.07 03/14/2019 00:57:47 -79.04, 0.14 98.06 3.01 4
6 03/14/2019 01:48:49 79.02, 167.38 81.91 03/14/2019 01:48:28 79.03, 167.39 81.92 1.38 21
7 03/14/2019 02:39:51 -79.01, -25.26 98.12 03/14/2019 02:39:09 -79.03, -25.29 98.10 2.91 42
8 03/14/2019 03:30:50 79.02, 141.86 81.89 03/14/2019 03:29:50 79.02, 141.96 81.88 2.17 60




NCC Satellite Simultaneous Nadir Overpasses (SNOs) Prediction Service
